Location: Boiro
(42.6475°N, 8.8834°W)
Time: 02:41:20
(UTC+01:00)

Explorer 11/Cluster Stage 4 - Pass Details

Date: 06 December 2021
Orbit: 467 x 1255 km, 28.8° (Epoch: 20 January)

Event Time Altitude Azimuth Distance (km) Brightness Sun altitude
Rises 03:54:07 0° 237° (WSW) 3,359 - -53.4°
Reaches altitude 10° 03:56:55 10° 223° (SW) 2,563 - -52.9°
Maximum altitude 04:01:50 24° 172° (S) 1,949 - -52.1°
Drops below altitude 10° 04:07:29 10° 122° (ESE) 2,992 - -51.1°
Exits shadow 04:08:06 - 119° (ESE) 3,167 9.9 -51.0°
Sets 04:11:03 0° 110° (ESE) 4,056 10.7 -50.5°
